Eureka, AK

2:38 PM AKDT on March 30, 2017 (GMT -0800)
Skelton

Weather History for PAZK - December, 2012

Change the Weather History Date:

Friday, December 7, 2012

  Actual Average Record
Temperature  
Mean Temperature -14 °F -  
Max Temperature -9 °F 7 °F 35 °F (2013)
Min Temperature -20 °F 0 °F -20 °F (2012)
Degree Days  
Heating Degree Days 80    
Moisture  
Dew Point -22 °F    
Average Humidity 69    
Maximum Humidity 100    
Minimum Humidity 41    
Precipitation  
Precipitation 0.00 in - - ()
Sea Level Pressure  
Sea Level Pressure 29.74 in    
Wind  
Wind Speed 7 mph (ENE)    
Max Wind Speed 9 mph    
Max Gust Speed -    
Visibility 10 miles    
Events      
Averages and records for this station are not official NWS values.
T = Trace of Precipitation, MM = Missing Value Source: NWS Daily Summary

Daily Weather History Graph

Daily Weather History Graph

Search for Another Location

Airport or City:

Trip Planner

Search our weather history database for the weather conditions in past years. The results will help you decide how hot, cold, wet, or windy it might be!

Date:

Astronomy

Dec. 07, 2012 Rise Set
Actual Time 9:55 AM AKST 3:25 PM AKST
Civil Twilight 8:52 AM AKST 4:28 PM AKST
Nautical Twilight 7:51 AM AKST 5:29 PM AKST
Astronomical Twilight 6:57 AM AKST 6:23 PM AKST
Moon 1:38 AM AKST (12/7) 1:04 PM AKST (12/7)
Length of Visible Light 7h 36m
Length of Day
5h 29m
Last Quarter, 37% of the Moon is Illuminated
Dec 7
Last Quarter
Dec 12
New
Dec 19
First Quarter
Dec 28
Full
Jan 4
Last Quarter

Hourly Weather History & Observations

Time (AKST) Temp. Windchill Dew Point Humidity Pressure Visibility Wind Dir Wind Speed Gust Speed Precip Events Conditions
12:16 AM -13.0 °F -27.0 °F -14.8 °F 92% 29.67 in 10.0 mi NE 5.8 mph - N/A   Clear
12:36 AM -13.0 °F -25.1 °F -27.4 °F 49% 29.68 in 10.0 mi NNE 4.6 mph - N/A   Clear
12:56 AM -13.0 °F -27.0 °F -14.8 °F 92% 29.68 in 10.0 mi NNE 5.8 mph - N/A   Clear
1:16 AM -13.0 °F -28.6 °F -23.8 °F 59% 29.69 in 10.0 mi NE 6.9 mph - N/A   Clear
1:36 AM -11.2 °F -27.8 °F -14.8 °F 84% 29.69 in 10.0 mi NE 8.1 mph - N/A   Clear
1:56 AM -9.4 °F -24.3 °F -25.6 °F 45% 29.69 in 10.0 mi NE 6.9 mph - N/A   Clear
2:16 AM -9.4 °F -25.6 °F -20.2 °F 59% 29.69 in 10.0 mi NE 8.1 mph - N/A   Clear
2:36 AM -9.4 °F -24.3 °F -16.6 °F 71% 29.69 in 10.0 mi NE 6.9 mph - N/A   Clear
2:56 AM -11.2 °F -27.8 °F -25.6 °F 49% 29.70 in 10.0 mi NE 8.1 mph - N/A   Clear
3:16 AM -9.4 °F -25.6 °F -9.4 °F 100% 29.69 in 10.0 mi NE 8.1 mph - N/A   Clear
3:36 AM -9.4 °F -24.3 °F -25.6 °F 45% 29.69 in 10.0 mi NE 6.9 mph - N/A   Clear
3:56 AM -9.4 °F -25.6 °F -9.4 °F 100% 29.69 in 10.0 mi NE 8.1 mph - N/A   Clear
4:16 AM -9.4 °F -24.3 °F -27.4 °F 41% 29.69 in 10.0 mi NE 6.9 mph - N/A   Clear
4:36 AM -11.2 °F -26.4 °F -13.0 °F 92% 29.69 in 10.0 mi NE 6.9 mph - N/A   Clear
4:56 AM -11.2 °F -27.8 °F -27.4 °F 45% 29.69 in 10.0 mi NE 8.1 mph - N/A   Clear
5:16 AM -11.2 °F -26.4 °F -23.8 °F 54% 29.69 in 10.0 mi NE 6.9 mph - N/A   Clear
5:36 AM -13.0 °F -28.6 °F -20.2 °F 70% 29.69 in 10.0 mi NE 6.9 mph - N/A   Clear
5:56 AM -13.0 °F -27.0 °F -22.0 °F 64% 29.70 in 10.0 mi NE 5.8 mph - N/A   Clear
6:16 AM -14.8 °F -30.8 °F -20.2 °F 77% 29.70 in 10.0 mi NE 6.9 mph - N/A   Clear
6:36 AM -14.8 °F -29.1 °F -25.6 °F 58% 29.70 in 10.0 mi NE 5.8 mph - N/A   Clear
6:56 AM -14.8 °F -30.8 °F -18.4 °F 84% 29.70 in 10.0 mi ENE 6.9 mph - N/A   Clear
7:16 AM -14.8 °F -30.8 °F -23.8 °F 64% 29.70 in 10.0 mi ENE 6.9 mph - N/A   Clear
7:36 AM -14.8 °F -30.8 °F -23.8 °F 64% 29.71 in 10.0 mi ENE 6.9 mph - N/A   Clear
7:56 AM -16.6 °F -32.9 °F -22.0 °F 76% 29.71 in 10.0 mi ENE 6.9 mph - N/A   Clear
8:16 AM -14.8 °F -30.8 °F -25.6 °F 58% 29.71 in 10.0 mi ENE 6.9 mph - N/A   Clear
8:36 AM -14.8 °F -30.8 °F -16.6 °F 92% 29.71 in 10.0 mi ENE 6.9 mph - N/A   Clear
8:56 AM -14.8 °F -29.1 °F -27.4 °F 53% 29.72 in 10.0 mi ENE 5.8 mph - N/A   Clear
9:16 AM -14.8 °F -32.2 °F -18.4 °F 84% 29.72 in 10.0 mi East 8.1 mph - N/A   Clear
9:36 AM -14.8 °F -32.2 °F -25.6 °F 58% 29.73 in 10.0 mi ENE 8.1 mph - N/A   Clear
9:56 AM -14.8 °F -32.2 °F -25.6 °F 58% 29.73 in 10.0 mi ENE 8.1 mph - N/A   Clear
10:16 AM -14.8 °F -32.2 °F -16.6 °F 92% 29.74 in 10.0 mi ENE 8.1 mph - N/A   Clear
10:36 AM -14.8 °F -32.2 °F -29.2 °F 48% 29.74 in 10.0 mi ENE 8.1 mph - N/A   Clear
10:56 AM -14.8 °F -33.5 °F -14.8 °F 100% 29.74 in 10.0 mi ENE 9.2 mph - N/A   Clear
11:16 AM -13.0 °F -31.3 °F -25.6 °F 53% 29.74 in 10.0 mi ENE 9.2 mph - N/A   Clear
11:36 AM -14.8 °F -30.8 °F -18.4 °F 84% 29.75 in 10.0 mi ENE 6.9 mph - N/A   Clear
11:56 AM -13.0 °F -28.6 °F -22.0 °F 64% 29.75 in 10.0 mi ENE 6.9 mph - N/A   Clear
12:16 PM -11.2 °F -24.8 °F -22.0 °F 59% 29.76 in 10.0 mi ENE 5.8 mph - N/A   Clear
12:36 PM -11.2 °F -26.4 °F -18.4 °F 70% 29.75 in 10.0 mi ENE 6.9 mph - N/A   Clear
12:56 PM -11.2 °F -27.8 °F -25.6 °F 49% 29.76 in 10.0 mi ENE 8.1 mph - N/A   Clear
1:16 PM -11.2 °F -26.4 °F -11.2 °F 100% 29.75 in 10.0 mi ENE 6.9 mph - N/A   Clear
1:36 PM -11.2 °F -27.8 °F -29.2 °F 41% 29.76 in 10.0 mi ENE 8.1 mph - N/A   Clear
1:56 PM -11.2 °F -24.8 °F -11.2 °F 100% 29.76 in 10.0 mi ENE 5.8 mph - N/A   Clear
2:16 PM -11.2 °F -26.4 °F -29.2 °F 41% 29.76 in 10.0 mi ENE 6.9 mph - N/A   Clear
2:36 PM -11.2 °F -26.4 °F -13.0 °F 92% 29.76 in 10.0 mi ENE 6.9 mph - N/A   Clear
2:56 PM -13.0 °F -30.0 °F -27.4 °F 49% 29.76 in 10.0 mi NE 8.1 mph - N/A   Clear
3:16 PM -14.8 °F -30.8 °F -27.4 °F 53% 29.76 in 10.0 mi NE 6.9 mph - N/A   Clear
3:36 PM -14.8 °F -32.2 °F -16.6 °F 92% 29.77 in 10.0 mi NE 8.1 mph - N/A   Clear
3:56 PM -16.6 °F -32.9 °F -29.2 °F 53% 29.76 in 10.0 mi NE 6.9 mph - N/A   Clear
4:16 PM -16.6 °F -31.3 °F -23.8 °F 70% 29.76 in 10.0 mi NE 5.8 mph - N/A   Clear
4:36 PM -16.6 °F -26.8 °F -18.4 °F 92% 29.77 in 10.0 mi ENE 3.5 mph - N/A   Clear
4:56 PM -16.6 °F -32.9 °F -29.2 °F 53% 29.76 in 10.0 mi ENE 6.9 mph - N/A   Clear
5:16 PM -16.6 °F -31.3 °F -22.0 °F 76% 29.77 in 10.0 mi ENE 5.8 mph - N/A   Clear
5:36 PM -16.6 °F -32.9 °F -27.4 °F 58% 29.77 in 2.0 mi East 6.9 mph - N/A   Clear
5:56 PM -16.6 °F -31.3 °F -25.6 °F 64% 29.77 in 10.0 mi East 5.8 mph - N/A   Clear
6:16 PM -16.6 °F -32.9 °F -20.2 °F 84% 29.77 in 10.0 mi East 6.9 mph - N/A   Clear
6:36 PM -16.6 °F -31.3 °F -27.4 °F 58% 29.78 in 10.0 mi East 5.8 mph - N/A   Clear
6:56 PM -16.6 °F -32.9 °F -22.0 °F 76% 29.78 in 10.0 mi East 6.9 mph - N/A   Clear
7:16 PM -16.6 °F -34.4 °F -23.8 °F 70% 29.79 in 10.0 mi East 8.1 mph - N/A   Clear
7:36 PM -16.6 °F -32.9 °F -25.6 °F 64% 29.79 in 10.0 mi East 6.9 mph - N/A   Clear
7:56 PM -16.6 °F -32.9 °F -25.6 °F 64% 29.79 in 10.0 mi East 6.9 mph - N/A   Clear
8:16 PM -16.6 °F -31.3 °F -22.0 °F 76% 29.79 in 10.0 mi East 5.8 mph - N/A   Clear
8:36 PM -18.4 °F -33.4 °F -29.2 °F 58% 29.79 in 10.0 mi East 5.8 mph - N/A   Clear
8:56 PM -18.4 °F -35.1 °F -23.8 °F 76% 29.79 in 10.0 mi ENE 6.9 mph - N/A   Clear
9:16 PM -18.4 °F -33.4 °F -25.6 °F 70% 29.79 in 10.0 mi ENE 5.8 mph - N/A   Clear
9:36 PM -18.4 °F -28.9 °F -27.4 °F 63% 29.79 in 10.0 mi ENE 3.5 mph - N/A   Clear
9:56 PM -16.6 °F -29.3 °F -20.2 °F 84% 29.79 in 10.0 mi ENE 4.6 mph - N/A   Clear
10:16 PM -18.4 °F -31.4 °F -29.2 °F 58% 29.79 in 10.0 mi ENE 4.6 mph - N/A   Clear
10:36 PM -18.4 °F -31.4 °F - N/A% 29.79 in 10.0 mi ENE 4.6 mph - N/A   Clear
10:56 PM -20.2 °F - -25.6 °F 76% 29.81 in 10.0 mi Calm Calm - N/A   Clear
11:16 PM -18.4 °F -36.6 °F -23.8 °F 76% 29.81 in 10.0 mi ENE 8.1 mph - N/A   Clear
11:36 PM -18.4 °F -36.6 °F -27.4 °F 63% 29.81 in 10.0 mi ENE 8.1 mph - N/A   Clear
11:56 PM -16.6 °F -32.9 °F -25.6 °F 64% 29.81 in 10.0 mi ENE 6.9 mph - N/A   Clear